Tracking 23099 objects as of 14-May-2021
HD Live streaming from Space Station
objects crossing your sky now

ARIANE 44LP DEB

Track ARIANE 44LP DEB now!


NORAD ID: 26794
Int'l Code: 1991-015L
Perigee: 601.4 km
Apogee: 28,393.4 km
Inclination: 7.5 °
Period: 500.0 minutes
Semi major axis: 20868 km
RCS: 0.5191 m2 (medium)
Launch date: March 2, 1991
Source: France (FR)
Launch site: FRENCH GUIANA (FRGUI)

Note: This is SATELLITE DEBRIS
aabbcc
Your satellite tracking list
Your tracking list is empty




NASA's NSSDC Master Catalog

Two Line Element Set (TLE):
1 26794U 91015L   21133.58440994 -.00000153  00000-0 -73552-3 0  9993
2 26794   7.4512 236.9923 6658850 187.4202 350.0256  2.87984431 74407
Source of the keplerian elements: AFSPC